Location: Cahas Mountain Overlook
(37.0833°N, 80.1000°W)
Time: 10:39:43
(UTC-05:00)

S-56A Canister/Altair - Pass Details

Date: 02 December 2023
Orbit: 640 x 2488 km, 38.9° (Epoch: 25 February)

Event Time Altitude Azimuth Distance (km) Brightness Sun altitude
Rises 14:00:34 0° 263° (W) 2,939 11.0 25.4°
Reaches altitude 10° 14:02:49 10° 265° (W) 2,020 10.3 25.2°
Maximum altitude 14:07:16 78° 351° (N) 696 7.6 24.8°
Drops below altitude 10° 14:12:33 10° 79° (E) 2,384 9.8 24.2°
Sets 14:15:24 0° 81° (E) 3,526 10.6 23.9°
